Location: Vihti�l�
(61.3833°N, 23.0667°E)
Time: 03:49:59
(UTC+00:00)

NOSS 2-2 (D) - Pass Details

Date: 29 November 2020
Orbit: 464 x 1744 km, 63.3° (Epoch: 16 January)

Event Time Altitude Azimuth Distance (km) Brightness Sun altitude
Exits shadow 05:34:21 13° 285° (WNW) 1,738 5.2 -10.0°
Maximum altitude 05:38:10 74° 10° (N) 734 3.9 -9.6°
Drops below altitude 10° 05:43:55 10° 96° (E) 2,568 7.9 -9.0°
Sets 05:46:53 0° 98° (E) 3,730 9.0 -8.7°
